Simultaneous Nadir Overpasses (SNOs) Predictions

Prediction of SNOs between AQUA and METOP-B Satellite Orbit:

Table of predicted SNOs for the next 14.0 days since TLE Epoch: 7/13/2018
Index Date (AQUA) Time (AQUA) Lat,Lon (AQUA) SZA (AQUA ) Date (METOP-B) Time (METOP-B) Lat,Lon (METOP-B) SZA (METOP-B ) Distance(km) Time Diff (sec)
1 07/14/2018 18:55:14 -73.95, 70.27 127.58 07/14/2018 18:54:46 -73.94, 70.23 127.59 2.05 28
2 07/14/2018 19:44:42 74.01,-122.22 52.49 07/14/2018 19:45:25 73.99,-122.30 52.48 2.83 43
3 07/17/2018 14:29:35 -73.95, 136.68 127.12 07/17/2018 14:29:06 -73.93, 136.62 127.13 2.95 29
4 07/17/2018 15:19:03 74.01, -55.82 52.96 07/17/2018 15:19:44 74.03, -55.79 52.97 2.56 41
5 07/20/2018 10:03:55 -73.95,-156.91 126.61 07/20/2018 10:03:24 -73.97,-156.87 126.58 2.31 31
6 07/20/2018 10:53:23 74.02, 10.58 53.48 07/20/2018 10:54:03 74.02, 10.59 53.47 0.50 40
7 07/23/2018 05:38:16 -73.96, -90.51 126.05 07/23/2018 05:37:44 -73.96, -90.49 126.04 0.74 32
8 07/23/2018 06:27:44 74.03, 76.97 54.04 07/23/2018 06:28:23 74.01, 76.96 54.02 2.13 39
9 07/26/2018 01:12:37 -73.97, -24.12 125.44 07/26/2018 01:12:04 -73.95, -24.11 125.45 2.58 33
10 07/26/2018 02:02:05 74.04, 143.36 54.65 07/26/2018 02:02:42 74.04, 143.45 54.64 2.82 37




NCC Satellite Simultaneous Nadir Overpasses (SNOs) Prediction Service
